Red Bluff, CA

3:13 PM PST on December 05, 2019 (GMT -0800)
Red Bluff Municipal

Weather History for KRBL - October, 2019

Change the Weather History Date:

Monday, October 14, 2019

  Actual Average Record
Temperature  
Mean Temperature 62 °F -  
Max Temperature 82 °F 78 °F 102 °F (1991)
Min Temperature 43 °F 51 °F 43 °F (2019)
Degree Days  
Heating Degree Days 2    
Growing Degree Days 12 (Base 50)    
Moisture  
Dew Point 28 °F    
Average Humidity 32    
Maximum Humidity 58    
Minimum Humidity 5    
Precipitation  
Precipitation 0.00 in - - ()
Sea Level Pressure  
Sea Level Pressure 29.93 in    
Wind  
Wind Speed 6 mph (NNW)    
Max Wind Speed 9 mph    
Max Gust Speed -    
Visibility 10 miles    
Events      
Averages and records for this station are not official NWS values.
T = Trace of Precipitation, MM = Missing Value Source: NWS Daily Summary

Daily Weather History Graph

Daily Weather History Graph

Search for Another Location

Airport or City:

Astronomy

Oct. 14, 2019 Rise Set
Actual Time 7:18 AM PDT 6:30 PM PDT
Civil Twilight 6:51 AM PDT 6:58 PM PDT
Nautical Twilight 6:19 AM PDT 7:29 PM PDT
Astronomical Twilight 5:48 AM PDT 8:01 PM PDT
Moon 7:23 PM PDT (10/14) 7:55 AM PDT (10/14)
Length of Visible Light 12h 07m
Length of Day
11h 12m
Full, 99% of the Moon is Illuminated
Oct 14
Full
Oct 21
Last Quarter
Oct 27
New
Nov 4
First Quarter
Nov 12
Full

Hourly Weather History & Observations

Time (PDT) Temp. Windchill Dew Point Humidity Pressure Visibility Wind Dir Wind Speed Gust Speed Precip Events Conditions
12:54 AM 52.0 °F - 30.0 °F 43% 29.89 in 10.0 mi NW 8.1 mph - N/A   Clear
1:54 AM 51.1 °F - 28.9 °F 43% 29.90 in 10.0 mi NW 5.8 mph - N/A   Clear
2:54 AM 50.0 °F - 28.9 °F 44% 29.90 in 10.0 mi NW 8.1 mph - N/A   Clear
3:54 AM 46.9 °F - 28.9 °F 50% 29.90 in 10.0 mi NNW 5.8 mph - N/A   Clear
4:54 AM 46.0 °F 42.5 °F 30.0 °F 54% 29.91 in 10.0 mi NNW 6.9 mph - N/A   Clear
5:54 AM 44.1 °F 41.5 °F 30.0 °F 58% 29.92 in 10.0 mi North 4.6 mph - N/A   Clear
6:54 AM 48.0 °F - 28.9 °F 48% 29.94 in 10.0 mi NW 6.9 mph - N/A   Clear
7:54 AM 48.0 °F - 30.0 °F 50% 29.95 in 10.0 mi NNW 9.2 mph - N/A   Clear
8:54 AM 55.9 °F - 30.0 °F 37% 29.96 in 10.0 mi NNW 8.1 mph - N/A   Clear
9:54 AM 62.1 °F - 28.9 °F 29% 29.96 in 10.0 mi NNW 9.2 mph - N/A   Clear
10:54 AM 69.1 °F - 28.0 °F 22% 29.96 in 10.0 mi North 6.9 mph - N/A   Clear
11:54 AM 73.0 °F - 27.0 °F 18% 29.95 in 10.0 mi North 5.8 mph - N/A   Clear
12:54 PM 77.0 °F - 28.0 °F 17% 29.93 in 10.0 mi ESE 3.5 mph - N/A   Clear
2:54 PM 81.0 °F - 21.0 °F 11% 29.90 in 10.0 mi South 4.6 mph - N/A   Clear
3:54 PM 82.0 °F - 24.1 °F 12% 29.90 in 10.0 mi Variable 3.5 mph - N/A   Clear
4:54 PM 82.0 °F - 21.9 °F 11% 29.90 in 10.0 mi SE 8.1 mph - N/A   Clear
5:54 PM 79.0 °F - 27.0 °F 15% 29.90 in 10.0 mi SSE 4.6 mph - N/A   Clear
6:54 PM 71.1 °F - 28.0 °F 20% 29.91 in 10.0 mi SSE 4.6 mph - N/A   Clear
7:54 PM 69.1 °F - 32.0 °F 25% 29.93 in 10.0 mi Calm Calm - N/A   Clear
8:54 PM 61.0 °F - 33.1 °F 35% 29.95 in 10.0 mi Calm Calm - N/A   Clear
9:54 PM 55.9 °F - 30.9 °F 39% 29.97 in 10.0 mi SSW 3.5 mph - N/A   Clear
10:54 PM 51.1 °F - 30.0 °F 44% 29.99 in 10.0 mi North 3.5 mph - N/A   Clear
11:54 PM 50.0 °F - 28.9 °F 44% 30.01 in 10.0 mi WNW 5.8 mph - N/A   Clear